Date String (YYYY-MM-DD hh:mm:ss) UTC,Instrument flags,absolute air pressure of the measurement (hPa),sample flow rate (lpm),inlet stack bypass flow (lpm),air temperature of the measurement (°C),ambient temperature measured by the external sensor (°C),aerosol sample conditioner tube jacket temperature (°C),OPC LED temperature (°C),internal box temperature (°C),relative humidity of the measurement (%),span deviation,mass concentration of particles derived from Lorenz-Mie calculation of OPC scattering (μg/m³),mass concentration of particles derived from Lorenz-Mie calculation of OPC scattering (μg/m³),mass concentration of particles derived from Lorenz-Mie calculation of OPC scattering (μg/m³)
DateTimeUTC,F1_M11,P_M11,Q1_M11,Q2_M11,T1_M11,T2_M11,T3_M11,T4_M11,T5_M11,U1_M11,ZSPAN_M11,X0_M11,X2_M11,X1_M11
2024-03-02 18:00:00,SystemResetWarning,0817.1,5.00,000.00,023.4,022.9,000.0,031.5,025.1,07.9,0000.0,0004.78,0001.69,0001.01
2024-03-02 18:01:00,SystemResetWarning,0817.1,5.01,000.00,023.5,022.9,000.0,031.5,025.1,07.7,0000.0,0004.74,0001.62,0001.02
2024-03-02 18:02:00,SystemResetWarning,0817.0,5.01,000.00,023.5,022.9,000.0,031.5,025.2,07.7,0000.0,0004.76,0001.62,0001.02
2024-03-02 18:03:00,SystemResetWarning,0816.9,5.01,000.00,023.5,022.9,000.0,031.6,025.2,07.7,0000.0,0004.68,0001.65,0001.02
2024-03-02 18:04:00,SystemResetWarning,0816.9,5.00,000.00,023.5,022.9,000.0,031.6,025.2,07.7,0000.0,0004.64,0001.68,0001.02
2024-03-02 18:05:00,SystemResetWarning,0816.9,4.99,000.00,023.5,023.0,000.0,031.6,025.3,07.8,0000.0,0005.33,0001.76,0001.03
2024-03-02 18:06:00,SystemResetWarning,0816.9,5.00,000.00,023.5,023.0,000.0,031.6,025.3,07.8,0000.0,0006.79,0001.81,0001.04
2024-03-02 18:07:00,SystemResetWarning,0816.9,5.00,000.00,023.5,023.0,000.0,031.6,025.3,07.1,0000.0,0007.35,0001.81,0001.04
2024-03-02 18:08:00,SystemResetWarning,0816.9,4.99,000.00,023.6,023.0,000.0,031.7,025.4,07.1,0000.0,0007.20,0001.79,0001.05
2024-03-02 18:09:00,SystemResetWarning,0816.9,5.00,000.00,023.6,023.0,000.0,031.7,025.3,07.0,0000.0,0007.23,0001.82,0001.04
2024-03-02 18:10:00,SystemResetWarning,0816.9,5.00,000.00,023.6,023.0,000.0,031.7,025.3,07.5,0000.0,0007.33,0001.85,0001.04
2024-03-02 18:11:00,SystemResetWarning,0816.9,5.00,000.00,023.6,023.1,000.0,031.7,025.3,07.4,0000.0,0006.54,0001.89,0001.04
2024-03-02 18:12:00,SystemResetWarning,0816.9,5.01,000.00,023.6,023.1,000.0,031.7,025.3,07.0,0000.0,0006.43,0001.96,0001.03
2024-03-02 18:13:00,SystemResetWarning,0816.9,5.00,000.00,023.7,023.1,000.0,031.7,025.4,07.0,0000.0,0007.46,0001.95,0001.03
2024-03-02 18:14:00,SystemResetWarning,0816.9,5.00,000.00,023.7,023.1,000.0,031.8,025.4,06.7,0000.0,0008.14,0001.96,0001.03
2024-03-02 18:15:00,SystemResetWarning,0816.9,5.00,000.00,023.7,023.1,000.0,031.8,025.4,06.7,0000.0,0008.69,0001.98,0001.03
2024-03-02 18:16:00,SystemResetWarning,0816.9,5.00,000.00,023.7,023.1,000.0,031.8,025.4,07.0,0000.0,0008.49,0001.97,0001.02
2024-03-02 18:17:00,SystemResetWarning,0816.8,4.99,000.00,023.7,023.1,000.0,031.8,025.5,07.0,0000.0,0007.69,0001.91,0001.01
2024-03-02 18:18:00,SystemResetWarning,0816.9,4.99,000.00,023.8,023.2,000.0,031.8,025.5,06.9,0000.0,0007.11,0001.88,0001.00
2024-03-02 18:19:00,SystemResetWarning,0816.9,5.00,000.00,023.8,023.2,000.0,031.8,025.5,06.8,0000.0,0007.20,0001.93,0001.01
2024-03-02 18:20:00,SystemResetWarning,0816.9,5.00,000.00,023.8,023.2,000.0,031.9,025.5,06.9,0000.0,0007.94,0001.90,0001.01
2024-03-02 18:21:00,SystemResetWarning,0816.9,5.00,000.00,023.8,023.2,000.0,031.9,025.5,06.7,0000.0,0008.28,0001.87,0001.02
2024-03-02 18:22:00,SystemResetWarning,0816.9,5.00,000.00,023.8,023.2,000.0,031.9,025.5,06.7,0000.0,0008.52,0001.78,0001.00
2024-03-02 18:23:00,SystemResetWarning,0816.9,5.01,000.00,023.8,023.2,000.0,031.9,025.5,06.7,0000.0,0008.65,0001.74,0000.99
2024-03-02 18:24:00,SystemResetWarning,0816.8,5.01,000.00,023.9,023.3,000.0,031.9,025.5,06.9,0000.0,0008.17,0001.78,0000.99
2024-03-02 18:25:00,SystemResetWarning,0816.8,5.00,000.00,023.9,023.3,000.0,031.9,025.6,07.1,0000.0,0007.60,0001.76,0000.98
2024-03-02 18:26:00,SystemResetWarning,0816.8,5.00,000.00,023.9,023.3,000.0,032.0,025.6,06.9,0000.0,0006.99,0001.71,0000.96
2024-03-02 18:27:00,SystemResetWarning,0816.9,5.00,000.00,023.9,023.3,000.0,032.0,025.6,06.8,0000.0,0007.05,0001.67,0000.94
2024-03-02 18:28:00,SystemResetWarning,0816.9,5.00,000.00,023.9,023.3,000.0,032.0,025.6,06.9,0000.0,0007.69,0001.64,0000.92
2024-03-02 18:29:00,SystemResetWarning,0816.8,5.00,000.00,023.9,023.3,000.0,032.0,025.6,07.1,0000.0,0007.74,0001.67,0000.91
2024-03-02 18:30:00,SystemResetWarning,0816.8,4.99,000.00,024.0,023.4,000.0,032.0,025.6,07.0,0000.0,0007.64,0001.60,0000.89
2024-03-02 18:31:00,SystemResetWarning,0816.7,4.99,000.00,024.0,023.4,000.0,032.0,025.6,07.2,0000.0,0006.65,0001.60,0000.88
2024-03-02 18:32:00,SystemResetWarning,0816.6,5.00,000.00,024.0,023.4,000.0,032.1,025.7,07.2,0000.0,0005.80,0001.56,0000.86
2024-03-02 18:33:00,SystemResetWarning,0816.6,5.01,000.00,024.0,023.4,000.0,032.1,025.7,07.2,0000.0,0005.19,0001.54,0000.86
2024-03-02 18:34:00,SystemResetWarning,0816.3,5.00,000.00,024.0,023.4,000.0,032.1,025.7,06.1,0000.0,0004.64,0001.52,0000.85
2024-03-02 18:35:00,SystemResetWarning,0816.2,5.01,000.00,024.0,023.5,000.0,032.1,025.7,05.8,0000.0,0004.25,0001.43,0000.84
2024-03-02 18:36:00,SystemResetWarning,0816.2,5.00,000.00,024.1,023.5,000.0,032.1,025.8,06.3,0000.0,0003.94,0001.37,0000.83
2024-03-02 18:37:00,SystemResetWarning,0816.3,4.99,000.00,024.1,023.5,000.0,032.1,025.8,07.0,0000.0,0004.15,0001.38,0000.83
2024-03-02 18:38:00,SystemResetWarning,0816.2,4.98,000.00,024.1,023.5,000.0,032.1,025.8,07.2,0000.0,0003.91,0001.40,0000.84
2024-03-02 18:39:00,SystemResetWarning,0816.2,5.00,000.00,024.1,023.5,000.0,032.2,025.9,07.3,0000.0,0002.83,0001.35,0000.84
2024-03-02 18:40:00,SystemResetWarning,0816.2,5.01,000.00,024.1,023.5,000.0,032.2,025.9,07.3,0000.0,0002.62,0001.28,0000.84
2024-03-02 18:41:00,SystemResetWarning,0816.2,5.00,000.00,024.2,023.6,000.0,032.2,025.9,07.2,0000.0,0002.59,0001.27,0000.84
2024-03-02 18:42:00,SystemResetWarning,0816.2,5.00,000.00,024.2,023.6,000.0,032.2,025.9,07.3,0000.0,0002.84,0001.29,0000.84
2024-03-02 18:43:00,SystemResetWarning,0816.1,5.00,000.00,024.2,023.6,000.0,032.2,026.0,06.7,0000.0,0002.80,0001.29,0000.85
2024-03-02 18:44:00,SystemResetWarning,0816.2,5.00,000.00,024.2,023.6,000.0,032.3,025.9,06.9,0000.0,0002.85,0001.32,0000.86
2024-03-02 18:45:00,SystemResetWarning,0816.1,5.01,000.00,024.2,023.6,000.0,032.3,025.9,07.0,0000.0,0003.56,0001.35,0000.88
2024-03-02 18:46:00,SystemResetWarning,0816.1,5.00,000.00,024.2,023.6,000.0,032.3,026.0,06.6,0000.0,0004.36,0001.40,0000.90
2024-03-02 18:47:00,SystemResetWarning,0816.1,5.00,000.00,024.2,023.6,000.0,032.3,026.0,06.8,0000.0,0004.79,0001.47,0000.91
2024-03-02 18:48:00,SystemResetWarning,0816.1,5.00,000.00,024.3,023.7,000.0,032.3,026.0,06.7,0000.0,0004.63,0001.47,0000.91
2024-03-02 18:49:00,SystemResetWarning,0816.1,5.00,000.00,024.3,023.7,000.0,032.3,026.0,06.3,0000.0,0005.88,0001.41,0000.88
2024-03-02 18:50:00,SystemResetWarning,0816.1,5.00,000.00,024.3,023.7,000.0,032.3,026.0,06.1,0000.0,0006.81,0001.39,0000.87
2024-03-02 18:51:00,SystemResetWarning,0816.0,5.01,000.00,024.3,023.7,000.0,032.4,026.0,05.9,0000.0,0006.83,0001.39,0000.87
2024-03-02 18:52:00,SystemResetWarning,0816.0,5.00,000.00,024.3,023.7,000.0,032.4,026.1,05.7,0000.0,0007.26,0001.43,0000.88
2024-03-02 18:53:00,SystemResetWarning,0816.0,5.00,000.00,024.3,023.7,000.0,032.4,026.1,05.5,0000.0,0007.42,0001.44,0000.89
2024-03-02 18:54:00,SystemResetWarning,0815.9,5.00,000.00,024.4,023.7,000.0,032.4,026.0,05.5,0000.0,0008.41,0001.49,0000.90
2024-03-02 18:55:00,SystemResetWarning,0815.9,5.00,000.00,024.4,023.8,000.0,032.4,026.1,05.6,0000.0,0008.96,0001.49,0000.90
2024-03-02 18:56:00,SystemResetWarning,0815.9,5.00,000.00,024.4,023.8,000.0,032.4,026.1,05.7,0000.0,0008.79,0001.50,0000.90
2024-03-02 18:57:00,SystemResetWarning,0815.8,5.00,000.00,024.4,023.8,000.0,032.5,026.1,05.9,0000.0,0008.50,0001.48,0000.89
2024-03-02 18:58:00,SystemResetWarning,0815.9,5.00,000.00,024.4,023.8,000.0,032.5,026.1,06.2,0000.0,0008.76,0001.45,0000.88
2024-03-02 18:59:00,SystemResetWarning,0815.9,5.00,000.00,024.4,023.8,000.0,032.5,026.2,06.1,0000.0,0008.67,0001.41,0000.90
